Location: Vancouver
(49.2500°N, 123.1330°W)
Time: 13:46:59
(UTC-07:00)

deb Explorer IX - Visible Passes

Search period start: 18 April 2015 00:00
Search period end: 28 April 2015 00:00
Orbit: 549 x 1160 km, 38.8° (Epoch: 17 April)

Date Brightness Start Highest point End Pass type
(mag) Time Alt. Az. Time Alt. Az. Time Alt. Az.
20 Apr ? 04:33:58 10° SSE 04:35:41 11° SE 04:37:46 10° SE visible
21 Apr ? 04:19:45 10° SSE 04:22:23 12° SE 04:25:21 10° ESE visible
22 Apr ? 04:05:49 10° S 04:09:03 14° SE 04:12:37 10° ESE visible
23 Apr ? 03:52:45 12° S 03:55:42 15° SE 03:59:42 10° ESE visible
24 Apr ? 03:40:08 14° SSE 03:42:20 16° SSE 03:46:41 10° ESE visible
24 Apr ? 05:22:55 10° SW 05:29:11 32° SSE 05:35:43 10° ESE visible
25 Apr ? 03:27:26 16° SSE 03:28:57 17° SSE 03:33:34 10° ESE visible
25 Apr ? 05:09:33 10° SW 05:15:49 33° SSE 05:22:26 10° ESE visible
26 Apr ? 03:14:41 18° SSE 03:15:33 18° SSE 03:20:22 10° ESE visible
26 Apr ? 04:56:38 12° SW 05:02:26 33° SSE 05:09:05 10° ESE visible
27 Apr ? 03:01:53 19° SSE 03:02:07 19° SSE 03:07:06 10° ESE visible
27 Apr ? 04:43:50 14° SW 04:49:02 34° S 04:55:41 10° ESE visible
